To NAV CANADA Home Page Login to a new session Search on AWWS site Feedback and Comments Disclaimer Vers la page française équivalente Tips FAQ What's new on the site To the Forecasts and Observations / NOTAM section To "File a Flight Plan" website Publications and other links Update of the User's profile FIC Telephone Numbers My Weather Data Folder Route Weather Data Regional Weather Data Local Weather Data To the Forecasts and Observations / NOTAM section
Request Generated 01/21/2017 at 02:09:00 UTC . Weather information available at that time is displayed.

METAR/TAF

PANGNIRTUNG/NU    (show WxCam)

LWIS CYXP 210200Z AUTO 25006KT M29/M33 A3009=
LWIS CYXP 210100Z AUTO 00000KT M29/M32 A3009=
LWIS CYXP 210000Z AUTO VRB02KT M28/M31 A3008=

*** REMARK        : Forecast period has ended; this was the last TAF issued
*** REMARQUE : La période de prévision est échue; ceci était le dernier TAF qui a été émis
TAF CYXP 201838Z 2019/2023 VRB03KT P6SM FEW040
RMK NXT FCST WILL BE ISSUED AT 211645Z=
Your time UTC time
Weather data provided by Environment Canada and NAV CANADA